Watertown, WI

6:58 AM CST on November 15, 2019 (GMT -0600)
Watertown Municipal

Weather History for KRYV - August, 2019

Change the Weather History Date:

Saturday, August 24, 2019

  Actual Average Record
Temperature  
Mean Temperature 60 °F -  
Max Temperature 74 °F 79 °F 102 °F (1947)
Min Temperature 48 °F 57 °F 35 °F (2007)
Degree Days  
Heating Degree Days 4    
Growing Degree Days 10 (Base 50)    
Moisture  
Dew Point 53 °F    
Average Humidity 78    
Maximum Humidity 100    
Minimum Humidity 49    
Precipitation  
Precipitation 0.00 in - - ()
Sea Level Pressure  
Sea Level Pressure 30.26 in    
Wind  
Wind Speed 3 mph ()    
Max Wind Speed 12 mph    
Max Gust Speed 17 mph    
Visibility 10.0 miles    
Events      
Averages and records for this station are not official NWS values.
T = Trace of Precipitation, MM = Missing Value Source: Averaged Metar Reports

Daily Weather History Graph

Daily Weather History Graph

Search for Another Location

Airport or City:

Astronomy

Aug. 24, 2019 Rise Set
Actual Time 6:10 AM CDT 7:43 PM CDT
Civil Twilight 5:40 AM CDT 8:13 PM CDT
Nautical Twilight 5:03 AM CDT 8:49 PM CDT
Astronomical Twilight 4:25 AM CDT 9:28 PM CDT
Moon No Moon Rise 3:03 PM CDT (8/24)
Length of Visible Light 14h 33m
Length of Day
13h 33m
Last Quarter, 39% of the Moon is Illuminated
Aug 24
Last Quarter
Aug 30
New
Sep 5
First Quarter
Sep 13
Full
Sep 21
Last Quarter

Hourly Weather History & Observations

Time (CDT) Temp. Dew Point Humidity Pressure Visibility Wind Dir Wind Speed Gust Speed Precip Events Conditions
12:15 AM 52.3 °F 52.2 °F 99% 30.27 in 10.0 mi Calm Calm - N/A   Clear
12:35 AM 50.5 °F 50.5 °F 100% 30.27 in 10.0 mi Calm Calm - N/A   Clear
12:55 AM 51.3 °F 51.3 °F 100% 30.27 in 10.0 mi Calm Calm - N/A   Clear
1:15 AM 52.0 °F 52.0 °F 100% 30.27 in 10.0 mi Calm Calm - N/A   Clear
1:35 AM 50.5 °F 50.5 °F 100% 30.27 in 10.0 mi Calm Calm - N/A   Clear
1:55 AM 50.2 °F 50.2 °F 100% 30.28 in 10.0 mi Calm Calm - N/A   Clear
2:15 AM 50.0 °F 50.0 °F 100% 30.27 in 10.0 mi Calm Calm - N/A   Clear
2:35 AM 50.7 °F 50.7 °F 100% 30.27 in 10.0 mi Calm Calm - N/A   Clear
2:55 AM 50.7 °F 50.7 °F 100% 30.28 in 10.0 mi Calm Calm - N/A   Clear
3:15 AM 50.0 °F 50.0 °F 100% 30.28 in 10.0 mi Calm Calm - N/A   Clear
3:35 AM 49.3 °F 49.3 °F 100% 30.28 in 10.0 mi Calm Calm - N/A   Clear
3:55 AM 49.8 °F 49.8 °F 100% 30.29 in 10.0 mi Calm Calm - N/A   Clear
4:15 AM 49.6 °F 49.6 °F 100% 30.29 in 10.0 mi Calm Calm - N/A   Clear
4:35 AM 49.5 °F 49.5 °F 100% 30.29 in 10.0 mi Calm Calm - N/A   Clear
4:55 AM 49.5 °F 49.5 °F 100% 30.29 in 10.0 mi Calm Calm - N/A   Clear
5:15 AM 48.4 °F 48.4 °F 100% 30.29 in 10.0 mi Calm Calm - N/A   Clear
5:35 AM 49.1 °F 49.1 °F 100% 30.29 in 10.0 mi Calm Calm - N/A   Clear
5:55 AM 48.9 °F 48.9 °F 100% 30.29 in 10.0 mi Calm Calm - N/A   Clear
6:15 AM 50.4 °F 50.4 °F 100% 30.29 in 10.0 mi Calm Calm - N/A   Clear
6:35 AM 50.4 °F 50.4 °F 100% 30.29 in 10.0 mi Calm Calm - N/A   Clear
6:55 AM 52.9 °F 52.9 °F 100% 30.30 in 10.0 mi Calm Calm - N/A   Clear
7:15 AM 56.8 °F 56.8 °F 100% 30.30 in 10.0 mi ENE 4.6 mph - N/A   Clear
7:35 AM 59.4 °F 59.0 °F 99% 30.29 in 10.0 mi ENE 5.8 mph - N/A   Clear
7:55 AM 61.3 °F 60.1 °F 96% 30.30 in 10.0 mi East 5.8 mph - N/A   Clear
8:15 AM 62.4 °F 60.8 °F 94% 30.30 in 10.0 mi ENE 8.1 mph - N/A   Scattered Clouds
8:35 AM 63.7 °F 61.2 °F 91% 30.31 in 10.0 mi East 4.6 mph - N/A   Clear
8:55 AM 65.3 °F 61.5 °F 88% 30.30 in 10.0 mi East 6.9 mph - N/A   Clear
9:15 AM 67.1 °F 59.9 °F 78% 30.30 in 10.0 mi East 6.9 mph - N/A   Clear
9:35 AM 68.7 °F 59.4 °F 72% 30.29 in 10.0 mi East 6.9 mph - N/A   Clear
9:55 AM 69.6 °F 57.9 °F 66% 30.30 in 10.0 mi ESE 8.1 mph - N/A   Clear
10:15 AM 68.9 °F 56.1 °F 64% 30.29 in 10.0 mi SE 9.2 mph - N/A   Scattered Clouds
10:55 AM 70.3 °F 55.0 °F 58% 30.29 in 10.0 mi SE 5.8 mph - N/A   Overcast
11:15 AM 70.3 °F 55.4 °F 59% 30.29 in 10.0 mi ESE 11.5 mph - N/A   Mostly Cloudy
11:35 AM 70.0 °F 56.5 °F 62% 30.29 in 10.0 mi ESE 9.2 mph 16.1 mph N/A   Overcast
11:55 AM 69.3 °F 55.9 °F 62% 30.28 in 10.0 mi SE 5.8 mph - N/A   Overcast
12:15 PM 71.1 °F 55.8 °F 58% 30.28 in 10.0 mi SE 8.1 mph - N/A   Overcast
12:35 PM 71.4 °F 55.0 °F 56% 30.28 in 10.0 mi ESE 6.9 mph - N/A   Overcast
12:55 PM 71.8 °F 55.9 °F 57% 30.27 in 10.0 mi SE 10.4 mph - N/A   Overcast
1:15 PM 73.9 °F 55.6 °F 53% 30.27 in 10.0 mi SE 11.5 mph - N/A   Overcast
1:35 PM 71.2 °F 53.6 °F 54% 30.27 in 10.0 mi East 8.1 mph - N/A   Overcast
1:55 PM 73.4 °F 53.8 °F 50% 30.26 in 10.0 mi ESE 10.4 mph 16.1 mph N/A   Mostly Cloudy
2:15 PM 72.5 °F 54.0 °F 52% 30.26 in 10.0 mi East 9.2 mph - N/A   Overcast
2:35 PM 72.5 °F 53.6 °F 51% 30.25 in 10.0 mi SSE 10.4 mph - N/A   Mostly Cloudy
2:55 PM 73.2 °F 54.1 °F 51% 30.25 in 10.0 mi East 6.9 mph - N/A   Overcast
3:15 PM 73.4 °F 54.0 °F 50% 30.24 in 10.0 mi ESE 6.9 mph - N/A   Mostly Cloudy
3:35 PM 71.8 °F 53.4 °F 52% 30.24 in 10.0 mi ESE 5.8 mph - N/A   Scattered Clouds
3:55 PM 73.4 °F 53.8 °F 50% 30.23 in 10.0 mi SE 9.2 mph 17.3 mph N/A   Mostly Cloudy
4:15 PM 73.4 °F 53.2 °F 49% 30.23 in 10.0 mi SE 9.2 mph - N/A   Scattered Clouds
4:35 PM 73.0 °F 53.8 °F 51% 30.23 in 10.0 mi East 11.5 mph - N/A   Scattered Clouds
4:55 PM 72.7 °F 52.9 °F 50% 30.23 in 10.0 mi ESE 10.4 mph - N/A   Scattered Clouds
5:15 PM 72.0 °F 52.7 °F 51% 30.22 in 10.0 mi East 6.9 mph - N/A   Scattered Clouds
5:35 PM 71.6 °F 52.7 °F 51% 30.23 in 10.0 mi East 9.2 mph - N/A   Clear
5:55 PM 70.7 °F 51.8 °F 51% 30.22 in 10.0 mi East 10.4 mph - N/A   Clear
6:15 PM 69.6 °F 52.2 °F 54% 30.22 in 10.0 mi East 10.4 mph - N/A   Clear
6:35 PM 68.0 °F 51.6 °F 56% 30.22 in 10.0 mi East 9.2 mph - N/A   Clear
6:55 PM 66.7 °F 50.9 °F 57% 30.22 in 10.0 mi East 8.1 mph - N/A   Clear
7:15 PM 64.4 °F 50.0 °F 59% 30.22 in 10.0 mi East 5.8 mph - N/A   Clear
7:35 PM 63.3 °F 49.8 °F 61% 30.22 in 10.0 mi East 6.9 mph - N/A   Clear
7:55 PM 61.7 °F 50.0 °F 65% 30.22 in 10.0 mi East 6.9 mph - N/A   Clear
8:15 PM 59.7 °F 50.4 °F 71% 30.23 in 10.0 mi East 4.6 mph - N/A   Clear
8:35 PM 59.0 °F 50.9 °F 74% 30.23 in 10.0 mi East 4.6 mph - N/A   Clear
8:55 PM 58.6 °F 51.3 °F 76% 30.22 in 10.0 mi ENE 6.9 mph - N/A   Clear
9:15 PM 58.1 °F 51.8 °F 80% 30.23 in 10.0 mi East 3.5 mph - N/A   Clear
9:35 PM 57.4 °F 52.2 °F 83% 30.23 in 10.0 mi East 4.6 mph - N/A   Clear
9:55 PM 56.7 °F 52.7 °F 87% 30.22 in 10.0 mi East 3.5 mph - N/A   Clear
10:15 PM 55.9 °F 53.1 °F 90% 30.23 in 10.0 mi East 4.6 mph - N/A   Clear
10:35 PM 55.4 °F 53.1 °F 92% 30.23 in 10.0 mi East 3.5 mph - N/A   Clear
10:55 PM 54.5 °F 53.4 °F 96% 30.23 in 10.0 mi East 3.5 mph - N/A   Clear
11:15 PM 54.1 °F 53.8 °F 99% 30.22 in 10.0 mi East 3.5 mph - N/A   Clear
11:35 PM 54.1 °F 54.1 °F 100% 30.22 in 10.0 mi East 4.6 mph - N/A   Clear
11:55 PM 54.3 °F 54.3 °F 100% 30.22 in 10.0 mi East 3.5 mph - N/A   Clear